[[[{"header":{"parameterUnit":"kt","parameterCategory":2,"dx":1,"dy":1,"la1":30.253999710083008,"la2":30.299108505249023,"lo1":-89.0895004272461,"lo2":-89.04439544677734,"nx":28,"ny":28,"refTime":"2022-10-12T21:00:00:Z","depth":0,"parameterNumber":1,"parameterNumberName":"U-component_of_WINDS"},"data":[1.8747,1.8838,1.8884,1.9011,1.9074,1.917,1.9219,1.9289,1.9355,1.9477,1.9555,1.9612,1.9698,1.9805,1.9893,1.9917,1.9953,1.9954,1.9982,1.9933,1.993,1.9926,1.9908,1.996,1.996,2.0027,2.0027,2.0028,1.8717,1.878,1.8859,1.8967,1.9037,1.9065,1.9153,1.921,1.9295,1.9377,1.9455,1.9565,1.9659,1.9745,1.9844,1.9891,1.9911,1.9915,1.9913,1.9927,1.9877,1.9856,1.9898,1.9898,1.9898,1.9898,1.9898,1.9898,1.8676,1.8728,1.8819,1.8905,1.8972,1.9044,1.9102,1.9169,1.9247,1.9352,1.9391,1.9488,1.9579,1.9718,1.9775,1.9855,1.9858,1.9877,1.9883,1.9887,1.9888,1.9794,1.9872,1.9872,1.9873,1.9873,1.9873,0,1.8661,1.8695,1.8772,1.8864,1.8929,1.9004,1.908,1.9117,1.9205,1.9265,1.9358,1.9419,1.9541,1.9634,1.9735,1.9791,1.9827,1.9833,1.9848,1.9833,1.9808,1.9827,1.9746,1.9831,1.983,1.983,1.983,1.983,1.8625,1.8678,1.8793,1.8841,1.8893,1.8969,1.9024,1.9096,1.9152,1.9257,1.93,1.9393,1.9471,1.9612,1.9689,1.978,1.9798,1.9827,1.9812,1.9797,1.9804,1.9802,1.981,1.9828,1.9829,1.9829,1.9829,0,1.8602,1.8673,1.8769,1.8876,1.8905,1.8958,1.9051,1.9105,1.9162,1.9246,1.9269,1.9359,1.9448,1.9521,1.9636,1.9671,1.9767,1.978,1.9738,1.9746,1.9782,1.9779,1.9877,1.9896,1.9838,1.9839,1.9839,0,1.8601,1.8666,1.8769,1.882,1.8898,1.8967,1.9042,1.9097,1.9173,1.9239,1.9289,1.935,1.9431,1.9504,1.9556,1.9646,1.9666,1.97,1.9713,1.9697,1.9693,1.9729,1.9728,1.9736,1.9735,1.9735,1.9734,0,1.8558,1.8687,1.8771,1.8812,1.8931,1.8969,1.9021,1.9105,1.9157,1.9236,1.9272,1.9358,1.9407,1.9475,1.9541,1.9528,1.965,1.9647,1.9685,1.9684,1.9709,1.9707,1.9774,1.9733,1.9733,1.9733,1.9733,0,1.8567,1.8643,1.8752,1.8853,1.8884,1.8938,1.9029,1.9091,1.9176,1.9211,1.9274,1.9315,1.9395,1.9388,1.9502,1.9468,1.9514,1.9552,1.9556,1.957,1.956,1.9593,1.9646,1.9657,1.9581,1.958,1.9579,0,1.8502,1.8628,1.8687,1.8788,1.8856,1.8908,1.897,1.9042,1.9094,1.9161,1.9219,1.9295,1.9303,1.9337,1.9384,1.9447,1.949,1.9443,1.9545,1.9548,1.9525,1.9574,1.9566,1.9626,1.9564,1.9565,1.9566,0,1.8458,1.8598,1.8612,1.8662,1.8765,1.8821,1.8891,1.898,1.9022,1.9095,1.9158,1.9263,1.9276,1.9329,1.937,1.9415,1.9463,1.9422,1.9425,1.9431,1.956,1.9552,1.9562,1.9482,1.9484,1.9485,1.9554,0,1.8463,1.8533,1.8571,1.8674,1.8728,1.8792,1.8865,1.8912,1.8947,1.8999,1.909,1.9165,1.9255,1.9282,1.9314,1.9392,1.9391,1.9401,1.9401,1.9431,1.9456,1.9466,1.9358,1.9359,1.9359,1.9359,0,0,1.8384,1.8484,1.8543,1.8612,1.8661,1.8711,1.8774,1.8828,1.8933,1.8968,1.8967,1.9125,1.9185,1.9288,1.9303,1.9337,1.936,1.9344,1.9415,1.9421,1.9427,1.9452,1.9461,1.936,1.936,1.936,1.936,0,1.84,1.8457,1.8516,1.8575,1.8662,1.8713,1.8727,1.8822,1.8858,1.8945,1.8985,1.9048,1.9169,1.9229,1.9276,1.9334,1.9361,1.9355,1.9364,1.9415,1.9421,1.9426,1.9451,1.9459,1.9361,1.9361,1.9361,0,1.8373,1.8442,1.8477,1.8587,1.8644,1.871,1.8727,1.8795,1.8846,1.8895,1.898,1.9031,1.9115,1.9201,1.9241,1.9242,1.9359,1.9332,1.9332,1.9339,1.9392,1.9399,1.9404,1.933,1.9329,1.9329,0,0,1.8377,1.844,1.8534,1.8595,1.8628,1.8704,1.8745,1.8783,1.8856,1.8885,1.895,1.9021,1.9094,1.9139,1.921,1.9292,1.9317,1.9325,1.9327,1.9328,1.9335,1.9388,1.9395,1.9327,1.9327,1.9327,0,0,1.8379,1.849,1.8511,1.859,1.8658,1.8755,1.8791,1.8819,1.8889,1.8889,1.8956,1.8978,1.9058,1.9105,1.9077,1.9211,1.9209,1.9217,1.9178,1.918,1.9182,1.917,1.9105,0,0,0,0,0,1.843,1.8477,1.8494,1.8518,1.8655,1.8745,1.8764,1.8819,1.8818,1.8845,1.8904,1.8929,1.9105,1.9082,1.9105,1.9136,1.9308,1.9312,1.9315,1.9284,1.9287,1.9288,0,0,0,0,0,0,1.844,1.8469,1.8493,1.8591,1.8622,1.8744,1.8754,1.877,1.8816,1.882,1.8917,1.8932,1.8982,1.9074,1.9094,1.9122,1.9098,1.931,1.9312,1.9315,1.9285,1.9287,1.9288,0,0,0,0,0,1.8448,1.8471,1.8676,1.8591,1.8618,1.8704,1.8752,1.8766,1.8803,1.8893,1.8909,1.8841,1.8981,1.9002,1.9086,1.9112,1.9085,1.9092,1.9311,1.9314,1.9316,1.9286,0,0,0,0,0,0,1.8454,1.8485,1.8683,1.8693,1.8576,1.8698,1.8719,1.8763,1.8874,1.889,1.882,1.8821,1.8981,1.8997,1.9013,1.9105,1.9074,1.9081,1.9086,1.9313,1.9315,1.9317,0,0,0,0,0,0,1.8473,1.8494,1.8688,1.8667,1.8676,1.8693,1.8711,1.879,1.8875,1.8795,1.88,1.8819,1.8958,1.8994,1.9006,1.9127,1.9065,1.9072,1.9077,1.908,1.9315,1.9316,0,0,0,0,0,0,1.8483,1.8501,1.8665,1.8671,1.8679,1.8801,1.8763,1.8901,1.8855,1.8789,1.8853,1.8852,1.8954,1.8968,1.9002,1.9117,1.9124,1.9066,1.907,1.9074,1.9076,0,0,0,0,0,0,0,1.8491,1.8359,1.862,1.8675,1.8681,1.879,1.8793,1.8796,1.8855,1.8854,1.8853,1.8852,1.9025,1.9033,1.9041,1.9109,0,0,1.9065,1.9068,0,0,0,0,0,0,0,0,1.8353,1.8358,1.8621,1.8623,1.8625,1.8791,1.8793,1.8796,1.8855,1.8854,1.8853,1.8853,1.9027,1.9033,1.904,0,0,0,0,0,0,0,0,0,0,0,0,0,0,0,1.8621,1.8623,0,1.8791,1.8793,1.8795,1.8855,1.8854,1.8854,1.8853,1.9029,1.9034,1.9039,0,0,0,0,0,0,0,0,0,0,0,0,0,0,0,0,0,0,0,0,0,0,0,0,0,0,0,0,0,0,0,0,0,0,0,0,0,0,0,0,0,0,0,0,0,0,0,0,0,0,0,0,0,0,0,0,0,0,0,0,0,0,0,0,0,0,0,0,0]}],[{"header":{"parameterUnit":"kt","parameterCategory":2,"dx":1,"dy":1,"la1":30.253999710083008,"la2":30.299108505249023,"lo1":-89.0895004272461,"lo2":-89.04439544677734,"nx":28,"ny":28,"refTime":"2022-10-12T21:00:00:Z","depth":0,"parameterNumber":2,"parameterNumberName":"V-component_of_WINDS"},"data":[4.8666,4.874,4.8814,4.8934,4.902,4.9116,4.9174,4.9257,4.9342,4.9467,4.9553,4.9634,4.9749,4.9871,4.9969,5.0003,5.004,5.0017,5.0062,5.0099,5.011,5.0119,5.0106,5.0023,5.0023,5.0014,5.0014,5.0014,4.8701,4.8786,4.8868,4.8998,4.9072,4.9141,4.925,4.9307,4.9391,4.9495,4.9581,4.9697,4.9798,4.9922,5.0032,5.0073,5.0111,5.0098,5.0096,5.0114,5.0157,5.0142,5.0065,5.0065,5.0065,5.0065,5.0065,5.0065,4.8783,4.8823,4.8943,4.9034,4.9119,4.9205,4.9258,4.9355,4.9438,4.9558,4.9627,4.9723,4.9841,5.0007,5.0079,5.0159,5.0187,5.0194,5.0197,5.0197,5.019,5.0204,5.018,5.0181,5.0181,5.0182,5.0182,0,4.8866,4.8924,4.9006,4.9111,4.9181,4.9268,4.9361,4.9395,4.954,4.9601,4.9697,4.9765,4.9899,4.9999,5.0116,5.019,5.0266,5.028,5.0287,5.0256,5.0216,5.0243,5.0313,5.0279,5.028,5.0281,5.0282,5.0282,4.8958,4.8993,4.9151,4.9199,4.9266,4.9341,4.9402,4.9526,4.9584,4.9716,4.9746,4.9846,4.9932,5.0074,5.0186,5.0286,5.0323,5.0304,5.0338,5.031,5.0329,5.0326,5.0333,5.0294,5.0293,5.0291,5.029,0,4.9004,4.9119,4.9196,4.9347,4.9386,4.9418,4.9549,4.9593,4.9681,4.9755,4.978,4.9917,5.0008,5.0124,5.0249,5.0307,5.037,5.0403,5.0334,5.0347,5.0345,5.0345,5.0307,5.0312,5.0395,5.0394,5.0393,0,4.9128,4.9168,4.9338,4.9375,4.9428,4.9549,4.9597,4.9677,4.9776,4.9835,4.9938,4.9991,5.0129,5.0201,5.0285,5.0357,5.0378,5.0428,5.045,5.0419,5.0414,5.0452,5.0456,5.0493,5.0493,5.0493,5.0493,0,4.919,4.9324,4.9387,4.9436,4.9597,4.9625,4.9693,4.9803,4.9859,4.995,4.9988,5.0084,5.0137,5.0212,5.0319,5.0339,5.0407,5.0456,5.0458,5.0456,5.0465,5.0463,5.0403,5.0493,5.0493,5.0493,5.0493,0,4.9306,4.9393,4.9464,4.9604,4.9633,4.9673,4.9776,4.9836,4.9944,5.0,5.0071,5.0152,5.0218,5.0261,5.0357,5.0353,5.0401,5.0453,5.0455,5.0468,5.0511,5.0465,5.0393,5.0391,5.0483,5.0483,5.0483,0,4.9349,4.9448,4.9551,4.9615,4.9677,4.979,4.9837,4.9927,5.0004,5.007,5.0156,5.0227,5.0282,5.032,5.0352,5.0443,5.0448,5.0446,5.0544,5.0546,5.0515,5.0451,5.0412,5.0396,5.0483,5.0483,5.0483,0,4.9394,4.9586,4.9589,4.9651,4.9785,4.9835,4.9888,4.9985,5.0024,5.0109,5.0159,5.0259,5.0308,5.0366,5.0439,5.0467,5.0449,5.0512,5.0517,5.0501,5.049,5.0455,5.0452,5.0493,5.0493,5.0493,5.0483,0,4.9554,4.9614,4.9627,4.9751,4.9807,4.9849,4.9967,5.0011,5.0077,5.0156,5.0227,5.0324,5.042,5.0443,5.0504,5.0529,5.0543,5.0589,5.0636,5.0591,5.0592,5.0591,5.0628,5.063,5.0632,5.0634,0,0,4.9568,4.9656,4.9762,4.9815,4.9868,4.998,5.0016,5.0081,5.0206,5.0242,5.027,5.0423,5.0498,5.0573,5.0568,5.0603,5.062,5.0627,5.0611,5.0608,5.0606,5.0603,5.0601,5.0637,5.0637,5.0638,5.0638,0,4.965,4.9723,4.9755,4.9828,4.9937,5.0017,5.0025,5.0151,5.0202,5.0268,5.0358,5.0414,5.0526,5.0599,5.065,5.0623,5.0687,5.0643,5.0592,5.0624,5.0619,5.0615,5.0611,5.0607,5.0643,5.0642,5.0642,0,4.9718,4.9812,4.9837,4.9959,5.003,5.0087,5.0168,5.0221,5.0266,5.0379,5.0442,5.051,5.0612,5.0663,5.069,5.0715,5.0742,5.0749,5.0742,5.0747,5.0784,5.0777,5.0771,5.0849,5.0849,5.0849,0,0,4.9773,4.9827,4.9962,4.9984,5.0024,5.0141,5.018,5.0248,5.0337,5.0371,5.0459,5.0543,5.0612,5.0654,5.0723,5.076,5.0793,5.077,5.0761,5.0752,5.0752,5.0787,5.078,5.085,5.085,5.085,0,0,4.9798,4.9956,5.0005,5.0045,5.0128,5.026,5.0271,5.0335,5.0407,5.0415,5.053,5.0557,5.0606,5.0667,5.0668,5.0742,5.0787,5.0788,5.0699,5.0689,5.0679,5.0663,5.076,0,0,0,0,0,4.9939,4.9937,4.998,5.0004,5.0154,5.0237,5.0257,5.0353,5.0385,5.0392,5.0477,5.0539,5.0693,5.0697,5.0718,5.0715,5.0863,5.0861,5.0859,5.0753,5.0741,5.0731,0,0,0,0,0,0,4.9949,4.9977,4.9981,5.0111,5.0146,5.0238,5.0314,5.034,5.0387,5.0398,5.0521,5.0543,5.0625,5.0692,5.071,5.0705,5.0754,5.0862,5.086,5.0858,5.0749,5.0739,5.073,0,0,0,0,0,4.9958,4.998,5.0195,5.0112,5.0142,5.027,5.0315,5.0337,5.0375,5.0502,5.0526,5.0443,5.0622,5.0644,5.0703,5.0695,5.0743,5.0749,5.0861,5.0859,5.0858,5.0744,0,0,0,0,0,0,4.9964,5.0002,5.0203,5.0216,5.0119,5.0267,5.0293,5.0334,5.0477,5.0501,5.0429,5.0436,5.0621,5.0638,5.0654,5.0686,5.0733,5.0739,5.0743,5.086,5.0859,5.0857,0,0,0,0,0,0,4.9991,5.0012,5.021,5.0212,5.0227,5.0264,5.0287,5.0348,5.0478,5.0397,5.0407,5.043,5.0596,5.0633,5.0646,5.0738,5.0726,5.0732,5.0736,5.0739,5.0859,5.0858,0,0,0,0,0,0,5.0001,5.002,5.021,5.022,5.0233,5.0384,5.032,5.0467,5.048,5.0388,5.0484,5.0486,5.0589,5.0605,5.064,5.0726,5.0735,5.0726,5.073,5.0733,5.0735,0,0,0,0,0,0,0,5.001,4.9862,5.0127,5.0227,5.0238,5.0335,5.0338,5.0342,5.0481,5.0482,5.0484,5.0485,5.069,5.0697,5.0704,5.0716,0,0,5.0725,5.0728,0,0,0,0,0,0,0,0,4.9857,4.9861,5.0127,5.013,5.0133,5.0335,5.0338,5.0341,5.0481,5.0482,5.0484,5.0485,5.0692,5.0698,5.0703,0,0,0,0,0,0,0,0,0,0,0,0,0,0,0,5.0128,5.013,0,5.0336,5.0338,5.0341,5.0481,5.0482,5.0483,5.0484,5.0694,5.0698,5.0703,0,0,0,0,0,0,0,0,0,0,0,0,0,0,0,0,0,0,0,0,0,0,0,0,0,0,0,0,0,0,0,0,0,0,0,0,0,0,0,0,0,0,0,0,0,0,0,0,0,0,0,0,0,0,0,0,0,0,0,0,0,0,0,0,0,0,0,0,0]}]]]